Simultaneous Nadir Overpasses (SNOs) Predictions

Prediction of SNOs between METOP-A and TERRA Satellite Orbit:

Table of predicted SNOs for the next 14.0 days since TLE Epoch: 4/17/2021
Index Date (METOP-A) Time (METOP-A) Lat,Lon (METOP-A) SZA (METOP-A ) Date (TERRA) Time (TERRA) Lat,Lon (TERRA) SZA (TERRA ) Distance(km) Time Diff (sec)
1 04/17/2021 23:26:22 -81.33, 55.19 106.70 04/17/2021 23:26:34 -81.33, 55.17 106.70 0.34 12
2 04/18/2021 00:17:03 81.33,-137.46 73.30 04/18/2021 00:16:01 81.32,-137.44 73.26 1.57 62
3 04/20/2021 19:00:43 -81.33, 121.64 107.64 04/20/2021 19:00:47 -81.34, 121.76 107.62 2.36 4
4 04/20/2021 19:51:24 81.33, -71.06 72.35 04/20/2021 19:50:14 81.32, -70.88 72.33 3.00 70
5 04/23/2021 13:44:24 81.33, 20.47 71.42 04/23/2021 13:45:34 81.33, 20.35 71.44 2.07 70
6 04/23/2021 14:35:04 -81.32,-171.93 108.57 04/23/2021 14:35:01 -81.32,-172.08 108.59 2.44 3
7 04/26/2021 09:18:44 81.33, 86.85 70.52 04/26/2021 09:19:46 81.33, 86.83 70.55 0.35 62
8 04/26/2021 10:09:24 -81.32,-105.52 109.47 04/26/2021 10:09:13 -81.33,-105.57 109.47 1.16 11
9 04/29/2021 04:53:05 81.33, 153.21 69.65 04/29/2021 04:53:59 81.33, 153.28 69.68 1.10 54



Historial Predications of SNOs between METOP-A and TERRA
